Hurghada, Egypt

6:25 PM EET on September 30, 2016 (GMT +0200)
Hurghada International

Weather History for HEGN - October, 2012

Change the Weather History Date:

Monday, October 22, 2012

  Actual Average Record
Temperature  
Mean Temperature 82 °F -  
Max Temperature 88 °F 85 °F 99 °F (2015)
Min Temperature 75 °F 70 °F 65 °F (2014)
Cooling Degree Days 16    
Growing Degree Days 32 (Base 50)    
Moisture  
Dew Point 72 °F    
Average Humidity 72    
Maximum Humidity 89    
Minimum Humidity 58    
Precipitation  
Precipitation 0.00 in - - ()
Sea Level Pressure  
Sea Level Pressure 29.87 in    
Wind  
Wind Speed 6 mph ()    
Max Wind Speed 15 mph    
Max Gust Speed -    
Visibility 6.2 miles    
Events      
Averages and records for this station are not official NWS values.
T = Trace of Precipitation, MM = Missing Value Source: Averaged Metar Reports

Daily Weather History Graph

Daily Weather History Graph

Search for Another Location

Airport or City:

Trip Planner

Search our weather history database for the weather conditions in past years. The results will help you decide how hot, cold, wet, or windy it might be!

Date:

Astronomy

Oct. 22, 2012 Rise Set
Actual Time 5:48 AM EET 5:09 PM EET
Civil Twilight 5:25 AM EET 5:33 PM EET
Nautical Twilight 4:57 AM EET 6:00 PM EET
Astronomical Twilight 4:30 AM EET 6:27 PM EET
Moon 12:28 PM EET (10/22) 11:52 PM EET (10/22)
Length of Visible Light 12h 08m
Length of Day
11h 20m
First Quarter, 53% of the Moon is Illuminated
Oct 22
First Quarter
Oct 29
Full
Nov 7
Last Quarter
Nov 14
New
Nov 20
First Quarter

Hourly Weather History & Observations

Time (EET) Temp. Heat Index Dew Point Humidity Pressure Visibility Wind Dir Wind Speed Gust Speed Precip Events Conditions
12:00 AM 78.8 °F - 73.4 °F 83% 29.86 in 6.2 mi NNW 3.5 mph - N/A   Scattered Clouds
1:00 AM 77.0 °F - 73.4 °F 89% 29.83 in 6.2 mi NW 4.6 mph - N/A   Scattered Clouds
2:00 AM 76 °F - 72 °F 84% 29.85 in 6 mi NW 6.9 mph - -   Partly Cloudy
2:00 AM 77.0 °F - 71.6 °F 83% 29.83 in 6.2 mi NW 6.9 mph - N/A   Scattered Clouds
3:00 AM 75.2 °F - 68.0 °F 78% 29.83 in 6.2 mi NW 8.1 mph - N/A   Scattered Clouds
4:00 AM 75.2 °F - 66.2 °F 73% 29.86 in 6.2 mi WNW 6.9 mph - N/A   Scattered Clouds
5:00 AM 75.2 °F - 66.2 °F 73% 29.86 in 6.2 mi WNW 10.4 mph - N/A   Scattered Clouds
6:00 AM 75.2 °F - 66.2 °F 73% 29.89 in 6.2 mi WNW 10.4 mph - N/A   Scattered Clouds
7:00 AM 77.0 °F - 66.2 °F 69% 29.89 in 6.2 mi WNW 8.1 mph - N/A   Scattered Clouds
8:00 AM 78.8 °F - 68.0 °F 69% 29.92 in 6.2 mi NW 15.0 mph - N/A   Scattered Clouds
9:00 AM 80.6 °F 83.9 °F 69.8 °F 70% 29.92 in 6.2 mi North 9.2 mph - N/A   Scattered Clouds
10:00 AM 82.4 °F 87.2 °F 71.6 °F 70% 29.92 in 6.2 mi North 6.9 mph - N/A   Scattered Clouds
11:00 AM 84.2 °F 90.9 °F 73.4 °F 70% 29.89 in 6.2 mi NNE 6.9 mph - N/A   Scattered Clouds
12:00 PM 87.8 °F 95.6 °F 73.4 °F 62% 29.86 in 6.2 mi ESE 5.8 mph - N/A   Scattered Clouds
1:00 PM 87.8 °F 93.8 °F 71.6 °F 58% 29.86 in 6.2 mi East 4.6 mph - N/A   Scattered Clouds
2:00 PM 87 °F - 75 °F 60% 29.85 in 6 mi East 9.2 mph - -   Partly Cloudy
2:00 PM 87.8 °F 97.6 °F 75.2 °F 66% 29.83 in 6.2 mi East 9.2 mph - N/A   Scattered Clouds
3:00 PM 87.8 °F 95.6 °F 73.4 °F 62% 29.83 in 6.2 mi ENE 5.8 mph - N/A   Partly Cloudy
4:00 PM 84.2 °F 92.3 °F 75.2 °F 74% 29.83 in 6.2 mi NNE 6.9 mph - N/A   Partly Cloudy
5:00 PM 84.2 °F 90.9 °F 73.4 °F 70% 29.86 in 6.2 mi ESE 5.8 mph - N/A   Partly Cloudy
6:00 PM 82.4 °F 88.2 °F 73.4 °F 74% 29.86 in 6.2 mi Calm Calm - N/A   Partly Cloudy
7:00 PM 82.4 °F 88.2 °F 73.4 °F 74% 29.86 in 6.2 mi Calm Calm - N/A   Partly Cloudy
8:00 PM 82 °F - 73 °F 68% 29.89 in 6 mi Calm Calm - -   Scattered Clouds
8:00 PM 82.4 °F 88.2 °F 73.4 °F 74% 29.89 in 6.2 mi Calm Calm - N/A   Partly Cloudy
9:00 PM 80.6 °F 84.6 °F 71.6 °F 74% 29.89 in - ESE 4.6 mph - N/A   Clear
10:00 PM 78.8 °F - 71.6 °F 78% 29.89 in - NW 3.5 mph - N/A   Clear
11:00 PM 78.8 °F - 71.6 °F 78% 29.89 in - NNW 3.5 mph - N/A   Clear